Regional Weather Roundup
Issued by NWS Albany, NY

Home | Current Version | Previous Version | Text Only | Print | Product List | Glossary On
Versions: 1 2 3 4 5 6 7 8 9 10 11 12 13 14 15 16 17 18 19 20 21 22 23 24 25 26 27 28 29 30 31 32 33 34 35 36 37 38 39 40 41 42 43 44 45 46 47 48 49 50
385
ASUS41 KALY 241310
RWRALY

NEW YORK STATE HOURLY WEATHER ROUNDUP
NATIONAL WEATHER SERVICE ALBANY NY
900 AM EDT TUE MAY 24 2016

NOTE: "FAIR" INDICATES FEW OR NO CLOUDS BELOW 12,000 FEET WITH NO
SIGNIFICANT WEATHER AND/OR NO OBSTRUCTIONS TO VISIBILITY.

NYZ032-033-038>043-046>054-057>066-NYZ062>081-082-084-241400-
EAST


CITY           SKY/WX    TMP DP  RH WIND       PRES   REMARKS
ALBANY         LGT RAIN  60  54  80 VRB6      29.94R
GLENS FALLS    PTSUNNY   62  44  51 NW3       29.92R
POUGHKEEPSIE   CLOUDY    60  56  86 W5        29.92R
NEWBURGH       LGT RAIN  57  57 100 CALM      29.92R FOG
MONTGOMERY     LGT RAIN  59  57  93 S6        29.91F
WHITE PLAINS   LGT RAIN  58  56  93 NW6       29.91R FOG
ISLIP          DRIZZLE   58  56  93 N8        29.89R FOG
NEW YORK CITY  LGT RAIN  62  61  96 NW5       29.91R
CENTRAL PARK   LGT RAIN  60  57  89 VRB3      29.94R FOG
$$

NYZ005>009-017-018-044>046-055-056-241400-
CENTRAL


CITY           SKY/WX    TMP DP  RH WIND       PRES   REMARKS
FULTON         SUNNY     67  47  48 NW13      29.97R
SYRACUSE       PTSUNNY   59  49  69 CALM      29.96R
ROME           PTSUNNY   58  50  75 NW6       29.97R
ELMIRA         SUNNY     62  46  55 SW5       29.99S
BINGHAMTON     SUNNY     62  41  46 N8        29.97R
MONTICELLO     MOSUNNY   59  50  72 W5        29.96R
$$

NYZ026>034-041>043-087-241400-
NORTH


CITY           SKY/WX    TMP DP  RH WIND       PRES   REMARKS
WATERTOWN      SUNNY     61  48  62 CALM      29.95R
FORT DRUM      NOT AVBL
MASSENA        SUNNY     66  49  54 W8        29.94S
SARANAC LAKE   SUNNY     67  39  35 CALM      29.94F
PLATTSBURGH    SUNNY     65  41  41 MISG      29.92S
$$

NYZ001>004-010>016-019>021-085-241400-
WEST


CITY           SKY/WX    TMP DP  RH WIND       PRES   REMARKS
NIAGARA FALLS  SUNNY     65  50  58 SW9       30.02R
BUFFALO        MOSUNNY   63  47  55 SW10      30.02R
DUNKIRK        SUNNY     66  48  52 SW7       30.04R
JAMESTOWN        N/A    N/A N/A N/A MISG        N/A
WELLSVILLE     SUNNY     64  46  52 NW7       30.06R
ROCHESTER      MOSUNNY   66  49  54 W7        30.00S
PENN YAN       SUNNY     66  45  46 SW6       30.00R
$$

             KEY
       WCI = WIND CHILL INDEX
       VSB = VISIBILITY
       HX  = HEAT INDEX
$$




USA.gov is the U.S. government's official web portal to all federal, state and local government web resources and services.